CAPE
1 0 0 0 0 2 2 2 3 4 4 4 5 5 6 6 2 0 0 35 201 101 51 98 251 250 284 254 245 180 133 95 102 1 0 0 0 4 3 1 0 0 0
1 0 0 0 0 0 2 2 3 4 3 4 4 5 8 4 1 70 23 21 72 99 144 45 41 156 231 212 210 224 124 66 62 26 0 1 1 1 3 2 2 1 0
0 0 0 0 0 0 1 1 2 2 3 3 4 6 7 9 7 3 53 123 49 106 150 95 27 4 19 58 139 126 121 48 69 20 19 1 1 1 5 0 6 0 0
0 1 1 1 1 0 1 1 1 2 2 2 3 4 5 5 7 9 1 0 65 151 120 110 88 5 0 31 44 3 0 12 59 41 25 11 0 1 4 0 0 0 0
0 1 1 1 2 1 1 1 0 0 1 1 2 2 3 3 5 6 1 0 0 0 83 52 46 83 18 47 17 3 38 61 28 39 28 14 4 3 0 0 0 0 1
1 2 1 1 1 1 1 1 1 1 0 0 1 1 3 4 3 6 8 2 1 2 0 0 1 0 0 0 0 6 24 20 39 25 13 3 11 6 2 0 0 0 0
1 1 2 2 2 1 1 1 0 0 0 1 1 0 1 2 5 4 4 7 13 5 10 10 6 8 5 0 0 0 0 0 0 8 3 4 0 2 0 0 0 0 0
0 0 1 0 1 2 2 2 0 0 0 0 0 0 0 1 3 4 4 3 0 0 1 5 6 8 7 4 4 2 4 6 5 2 1 1 1 0 0 0 0 2 4
0 0 0 0 0 0 0 1 1 0 1 0 0 0 0 0 1 2 2 3 4 1 2 2 4 5 2 2 5 4 8 14 14 14 18 17 12 5 2 0 0 0 1
0 0 0 0 0 0 0 0 0 0 0 0 1 0 1 0 2 3 0 1 2 2 3 1 3 3 5 3 1 4 6 13 13 7 5 1 4 4 2 0 0 0 1
1 0 0 0 0 0 0 0 0 0 0 0 0 0 0 0 0 3 3 1 1 1 2 1 0 2 4 5 3 4 5 3 7 6 6 5 4 3 2 2 0 1 0
0 0 0 0 0 0 0 0 0 0 0 0 0 0 0 0 0 2 3 2 2 1 1 0 0 1 2 4 3 3 1 2 5 3 1 6 5 6 8 3 3 2 0
0 0 0 0 0 0 0 0 0 0 0 0 0 0 0 0 0 0 1 1 1 1 1 2 1 1 1 0 1 2 0 2 3 5 5 6 4 2 1 3 4 3 3
0 0 0 0 0 0 0 0 0 0 0 0 0 0 0 0 0 0 0 0 0 0 0 0 0 0 0 0 0 0 0 0 0 0 2 2 0 0 2 2 3 3 1
0 0 0 0 0 0 0 0 0 0 0 0 0 0 0 0 2 1 0 0 0 0 0 0 0 0 0 0 0 0 0 0 0 0 0 0 0 0 1 1 1 1 2
0 0 0 0 0 0 0 0 1 0 0 0 2 3 0 1 1 3 1 0 0 0 0 0 0 0 0 0 0 0 0 0 0 0 0 0 0 0 0 0 0 1 0
0 0 0 0 0 0 0 0 0 0 0 0 0 0 0 0 0 0 0 0 0 0 0 0 0 0 0 0 0 0 0 0 0 0 0 0 0 0 0 0 0 0 0
0 0 0 0 0 0 0 0 0 0 0 0 0 0 0 0 0 0 0 0 0 0 0 0 0 0 0 0 0 0 0 0 0 0 0 0 0 0 0 0 0 0 0
0 0 0 0 0 0 0 0 0 0 0 0 0 0 0 0 0 0 0 0 0 0 0 0 0 0 0 0 0 0 0 0 0 0 0 0 0 0 0 0 0 0 0
0 0 0 0 0 0 0 0 0 0 0 0 0 0 0 0 0 0 0 0 0 0 0 0 0 0 0 0 0 0 0 0 0 0 0 0 0 0 0 0 0 0 0
0 0 0 0 0 0 0 0 0 0 0 0 0 0 0 0 0 0 0 0 0 0 0 0 0 0 0 0 0 0 0 0 0 0 0 0 0 0 0 0 0 0 0
0 0 0 0 0 0 0 0 0 0 0 0 0 0 0 0 0 0 0 0 0 0 0 0 0 0 0 0 0 0 0 0 0 0 0 0 0 0 0 0 0 0 0
0 0 0 0 0 0 0 0 0 0 0 0 0 0 0 0 0 0 0 0 0 0 0 0 0 0 0 0 0 0 0 0 0 0 0 0 0 0 0 0 0 0 0
0 0 0 0 0 0 0 0 0 0 0 0 0 0 0 0 0 0 0 0 0 0 0 0 0 0 0 0 0 0 0 0 0 0 0 0 0 0 0 0 0 0 0
0 0 0 0 0 0 0 0 0 0 0 0 0 0 0 0 0 0 0 0 0 0 0 0 0 0 0 0 0 0 0 0 0 0 0 0 0 0 0 0 0 0 0
0 0 0 0 0 0 0 0 0 0 0 0 0 0 0 0 0 0 0 0 0 0 0 0 0 0 0 0 0 0 0 0 0 0 0 0 0 0 0 0 0 0 0
CIN
0 0 0 0 0 0 0 0 0 0 0 0 0 0 0 0 0 0 0 -87 -25 -35 -81 -102 -71 -63 -61 -78 -88 -85 -67 -92 -44 -20 0 0 0 0 0 0 0 0 0
0 0 0 0 0 0 0 0 0 0 0 0 0 0 0 0 0 -21 -70 -102 -45 -50 -51 -140 -130 -75 -69 -80 -69 -70 -62 -77 -52 -65 0 -94 0 0 0 0 0 0 -21
0 0 0 0 0 0 0 0 0 0 0 0 0 0 0 0 0 0 -23 -42 -51 -62 -43 -70 -146 -215 -167 -78 -82 -71 -45 -49 -35 -57 -69 0 0 0 -9 0 -74 0 0
0 0 0 0 0 0 0 0 0 0 0 0 0 0 0 0 0 0 0 -15 -50 -4 -15 -16 -51 -80 0 -128 -104 -75 0 -9 -22 -38 -93 -70 0 0 -37 0 0 0 0
0 0 0 0 0 0 0 0 0 0 0 0 0 0 0 0 0 0 0 0 0 0 -8 -53 -47 -28 -35 -35 -45 -34 -14 0 -26 -32 -33 -27 -1 -1 -1 0 0 0 0
0 0 0 0 0 0 0 0 0 0 0 0 0 0 0 0 0 0 0 0 0 0 0 0 0 0 0 0 0 -44 -5 -13 -25 -20 -43 -19 -13 -8 -5 0 0 0 0
0 0 0 0 0 0 0 0 0 0 0 0 0 0 0 0 0 0 0 0 0 0 0 0 0 0 0 0 0 0 0 0 0 -46 -37 -17 -13 -17 0 0 0 0 0
0 0 0 0 0 0 0 0 0 0 0 0 0 0 0 0 0 0 0 0 0 0 0 0 0 0 0 0 0 0 0 0 0 0 0 0 0 0 0 0 0 0 0
0 0 0 0 0 0 0 0 0 0 0 0 0 0 0 0 0 0 0 0 0 0 0 0 0 0 0 0 0 0 0 0 0 0 0 0 0 0 0 0 0 0 0
0 0 0 0 0 0 0 0 0 0 0 0 0 0 0 0 0 0 0 0 0 0 0 0 0 0 0 0 0 0 0 0 0 0 0 0 0 0 0 0 0 0 0
-1 0 0 0 0 0 0 0 0 0 0 0 0 0 0 0 0 0 0 0 0 0 0 0 0 0 0 0 0 0 0 0 0 0 0 0 0 0 0 0 0 0 0
0 0 0 0 0 0 0 0 0 0 0 0 0 0 0 0 0 0 0 0 0 0 0 0 0 0 0 0 0 0 0 0 0 0 0 0 0 0 0 0 0 0 0
0 0 0 0 0 0 0 0 0 0 0 0 0 0 0 -1 0 0 0 0 0 0 0 0 0 0 0 0 0 0 0 0 0 0 0 0 0 0 0 0 0 0 0
0 0 0 0 0 0 0 0 0 0 0 0 0 0 0 -1 0 0 0 0 0 0 0 0 0 0 0 0 0 0 0 0 0 0 0 0 0 0 0 0 0 0 0
0 0 0 0 0 0 0 -1 0 0 -1 -1 -1 0 0 0 -3 -2 0 0 0 0 0 0 0 0 0 0 0 0 0 0 0 0 0 0 0 0 0 0 0 0 0
0 0 0 0 0 0 0 0 0 0 0 -1 -1 -2 0 -1 -1 -1 -1 0 0 0 0 0 0 0 0 0 0 0 0 0 0 0 0 0 0 0 0 0 0 0 0
0 0 0 0 0 0 0 0 0 0 0 0 0 0 -2 -1 0 0 0 0 -1 0 0 0 0 0 0 0 0 0 0 0 0 0 0 0 0 0 0 0 0 0 0
0 0 0 0 0 0 0 0 0 0 0 0 0 0 0 0 0 0 0 0 0 0 0 0 0 0 0 0 0 0 0 0 0 0 0 0 0 0 0 0 0 0 0
0 0 0 0 0 0 0 0 0 0 0 0 0 0 0 0 0 0 0 0 0 0 0 0 0 0 0 0 0 0 0 0 0 0 0 0 0 0 0 0 0 0 0
0 0 0 0 0 0 0 0 0 0 0 0 0 0 0 0 0 0 0 0 0 0 0 0 0 0 0 0 0 0 0 0 0 0 0 0 0 0 0 0 0 0 0
0 0 0 0 0 0 0 0 0 0 0 0 0 0 0 0 0 0 0 0 0 0 0 0 0 0 0 0 0 0 0 0 0 0 0 0 0 0 0 0 0 0 0
0 0 0 0 0 0 0 0 0 0 0 0 0 0 0 0 0 0 0 0 0 0 0 0 0 0 0 0 0 0 0 0 0 0 0 0 0 0 0 0 0 0 0
0 0 0 0 0 0 0 0 0 0 0 0 0 0 0 0 0 0 0 0 0 0 0 0 0 0 0 0 0 0 0 0 0 0 0 0 0 0 0 0 0 0 0
0 0 0 0 0 0 0 0 0 0 0 0 0 0 0 0 0 0 0 0 0 0 0 0 0 0 0 0 0 0 0 0 0 0 0 0 0 0 0 0 0 0 0
0 0 0 0 0 0 0 0 0 0 0 0 0 0 0 0 0 0 0 0 0 0 0 0 0 0 0 0 0 0 0 0 0 0 0 0 0 0 0 0 0 0 0
0 0 0 0 0 0 0 0 0 0 0 0 0 0 0 0 0 0 0 0 0 0 0 0 0 0 0 0 0 0 0 0 0 0 0 0 0 0 0 0 0 0 0
Wind_Speed
36 36 37 37 37 37 37 38 39 40 41 42 42 43 39 39 29 25 24 25 25 24 25 24 25 24 24 28 34 35 31 27 30 29 26 21 21 20 19 18 18 17 13
35 35 36 36 36 36 37 38 38 39 40 40 41 41 38 39 38 23 21 21 27 26 21 22 23 25 28 27 34 35 33 28 26 24 23 21 21 21 21 21 21 21 26
34 35 35 35 35 36 36 37 37 38 39 39 39 39 38 37 36 34 29 28 37 28 22 22 21 23 32 30 27 31 38 29 26 21 23 21 21 20 21 20 20 22 24
33 34 34 34 34 34 35 35 36 36 37 38 38 38 37 36 36 36 35 32 36 32 27 20 20 27 36 34 31 39 45 42 27 25 23 22 21 22 19 20 21 23 24
32 32 33 33 33 34 34 34 35 35 36 36 37 36 35 33 33 36 33 35 39 52 24 25 19 19 14 31 25 24 26 31 29 24 23 24 23 22 20 23 24 24 26
30 31 31 32 32 33 34 34 34 35 36 36 36 35 33 31 33 31 25 22 22 26 19 17 19 14 17 19 22 23 22 24 28 27 24 24 21 21 20 21 22 25 27
28 29 30 31 31 32 33 33 35 36 36 36 36 35 32 31 30 27 24 18 18 19 20 20 21 20 21 21 18 15 13 18 22 22 20 22 21 21 22 23 25 26 28
27 28 29 30 30 31 32 34 35 35 36 37 37 35 32 32 29 28 23 19 18 16 17 18 20 20 23 24 24 18 19 17 18 19 20 22 24 27 26 24 22 23 23
26 27 28 29 29 30 31 32 34 34 35 36 36 35 33 32 31 28 24 20 19 17 16 17 16 20 19 22 21 19 18 19 16 15 17 22 26 30 28 23 21 21 25
22 23 24 24 27 28 29 31 31 33 32 31 33 33 32 32 31 30 26 23 20 16 16 18 15 16 17 16 19 21 20 19 19 20 22 24 25 26 25 25 20 21 24
17 21 25 25 27 27 27 28 27 27 29 30 30 31 32 32 32 32 31 28 24 19 19 18 17 18 17 18 18 18 18 21 19 19 19 20 22 23 23 23 20 20 21
20 20 21 22 23 26 28 30 32 30 28 29 30 29 31 32 33 33 32 30 27 25 23 20 20 20 19 17 16 18 17 20 19 17 17 19 21 22 22 20 20 19 19
11 14 20 26 29 31 32 34 35 35 35 33 32 31 32 32 33 33 32 30 28 25 23 22 23 23 21 19 18 18 17 18 19 19 20 20 20 20 20 19 17 15 15
21 23 25 29 31 32 32 33 35 36 35 36 37 37 36 35 35 36 34 31 30 28 27 25 24 23 23 21 20 20 19 19 18 18 20 19 20 19 20 20 18 17 16
26 27 29 30 31 32 32 33 35 36 37 37 38 37 39 39 39 38 37 34 32 30 28 27 27 26 25 24 23 22 21 20 19 19 19 20 19 19 20 20 19 19 17
26 27 29 31 32 32 33 33 34 36 37 37 38 37 37 39 39 38 37 36 35 32 31 30 29 28 27 26 25 24 22 22 21 21 20 19 20 19 19 17 16 16 17
27 29 30 32 32 33 34 34 35 36 37 38 39 39 39 40 40 39 37 35 35 33 31 31 31 30 29 28 28 26 25 25 23 22 22 21 20 19 19 18 17 16 16
29 30 31 32 32 33 34 35 34 36 38 39 38 39 39 40 40 39 38 35 35 34 32 32 32 31 30 30 29 28 28 27 25 24 23 22 21 20 19 18 17 16 16
29 30 32 32 33 34 34 35 36 36 37 37 38 38 38 39 39 39 38 36 35 35 34 33 33 32 31 30 30 29 28 27 27 26 25 24 23 22 21 19 18 17 17
30 31 33 33 34 35 35 35 36 37 38 38 38 39 38 39 40 40 38 37 37 36 34 34 34 33 32 31 30 29 29 28 27 26 26 25 24 23 22 21 20 20 19
30 31 32 33 34 34 34 35 36 37 38 38 38 38 38 38 38 38 37 37 36 36 35 34 34 33 32 31 31 30 29 29 28 28 27 26 24 23 22 21 20 20 20
30 30 31 32 32 34 34 34 35 36 36 37 37 37 37 37 36 35 35 34 34 33 33 33 33 32 31 31 31 31 31 31 30 30 29 28 26 24 22 21 21 21 21
30 31 31 32 33 33 34 34 35 36 36 36 36 37 36 36 36 34 33 33 32 32 32 32 32 32 31 30 29 29 30 30 31 30 30 29 27 25 23 23 22 21 21
30 31 32 33 34 35 35 36 37 37 37 36 35 34 34 34 34 33 32 31 31 31 30 30 29 30 30 29 29 28 28 28 29 29 28 28 26 25 23 23 22 22 22
30 31 33 34 35 35 36 37 37 37 37 38 37 36 33 33 32 33 32 29 29 30 31 30 28 29 29 29 29 29 29 28 27 26 25 25 25 25 24 24 24 23 23
30 32 33 33 35 36 36 36 37 38 38 37 37 36 36 35 34 34 32 28 30 31 32 31 29 28 28 28 28 29 29 27 26 25 24 23 24 25 24 24 24 24 24
Wind_Direction
331 327 323 320 317 317 316 313 310 307 308 308 309 310 310 307 301 286 278 272 268 267 263 253 245 240 243 249 253 253 259 262 267 269 269 271 271 271 269 258 260 261 254
337 336 331 326 324 321 319 316 316 312 312 314 313 313 315 308 302 292 279 266 269 266 256 257 243 251 250 259 249 252 259 260 261 262 265 267 267 269 269 264 259 257 259
342 342 338 334 330 327 324 322 321 319 318 321 319 317 316 308 306 297 288 275 263 269 259 250 235 249 247 246 250 255 257 258 256 262 263 267 268 268 268 267 263 261 261
346 345 340 337 334 332 329 329 327 326 326 326 326 324 319 311 305 296 289 278 268 270 266 239 242 247 248 251 254 263 253 252 251 256 261 262 265 266 263 260 262 265 264
349 347 343 340 338 335 333 333 334 336 337 335 334 333 323 320 314 303 293 284 273 259 268 263 254 241 231 250 258 267 257 250 247 252 261 258 261 264 256 262 263 266 267
347 346 347 346 345 343 345 344 342 342 343 344 344 339 331 325 321 322 303 302 297 274 265 265 270 263 257 261 270 271 257 244 249 253 252 254 257 261 263 262 265 266 267
350 350 351 351 350 350 352 352 351 352 354 353 352 346 341 335 332 327 328 320 311 292 286 274 268 266 266 269 267 265 268 252 247 251 248 255 259 261 263 267 267 267 269
356 354 353 353 353 356 359 1 1 2 2 2 2 356 350 348 340 336 332 328 325 312 291 290 266 267 268 270 264 255 256 259 257 259 262 266 266 269 268 267 270 272 275
1 359 359 359 360 360 1 1 5 5 4 4 5 2 360 357 356 353 349 340 334 323 299 304 290 274 284 277 274 261 250 262 271 272 275 277 277 277 272 271 267 264 274
356 359 358 355 0 0 359 0 4 7 2 359 2 2 0 1 1 2 357 351 345 334 328 322 301 302 302 292 270 267 262 263 272 277 281 283 284 284 282 273 265 261 273
340 354 1 359 0 359 359 357 355 356 358 358 359 359 360 359 360 4 6 3 356 341 336 326 323 326 316 308 290 283 278 278 280 281 284 286 286 286 288 285 280 273 270
354 353 352 353 353 355 360 0 5 359 355 353 353 353 356 357 358 359 1 2 360 359 353 338 332 336 337 325 306 294 293 287 285 285 285 288 289 288 290 290 289 289 284
327 336 345 360 6 9 10 9 9 6 4 356 352 350 350 351 353 354 354 355 353 351 349 349 348 350 343 337 331 317 308 301 292 289 288 289 290 292 292 288 293 297 296
352 353 358 9 16 14 12 10 5 1 0 359 357 354 351 350 350 352 351 348 348 348 346 346 345 345 345 340 339 335 323 315 307 300 293 294 294 296 292 291 286 287 286
13 10 11 13 9 10 12 10 6 5 4 1 358 360 355 353 352 354 353 348 348 345 343 344 341 338 336 334 336 332 329 324 318 314 308 299 298 297 296 293 288 285 279
6 5 5 7 6 7 8 9 8 7 6 4 1 3 360 355 352 351 352 353 353 354 347 338 335 334 331 328 326 324 321 316 321 319 317 314 304 299 296 298 295 286 280
4 8 8 4 4 4 5 6 1 3 4 2 0 358 357 354 352 350 349 349 349 348 346 343 339 334 327 325 323 321 317 317 320 316 314 312 307 302 297 295 294 288 284
9 13 13 9 7 5 4 4 6 2 359 359 1 360 358 355 353 352 350 347 343 343 342 338 334 332 331 328 323 318 315 314 314 314 313 309 305 300 296 292 290 288 286
11 12 9 6 5 2 1 1 1 0 360 360 359 358 358 357 354 353 352 349 343 338 335 333 330 328 326 324 321 321 320 315 310 308 308 305 299 294 291 290 288 289 287
9 6 5 5 3 2 1 1 0 360 358 357 357 355 354 354 351 350 349 347 344 340 336 331 328 325 322 320 319 317 315 314 313 311 305 301 299 297 293 289 287 286 285
6 7 7 7 6 5 4 2 1 359 356 355 354 354 353 351 349 348 346 345 343 341 338 334 329 325 322 319 315 313 311 309 307 305 304 304 303 297 294 291 289 287 286
9 10 10 8 7 5 4 3 1 359 358 356 354 352 352 350 347 346 345 344 343 341 339 336 334 330 326 321 318 314 309 304 302 301 299 297 297 296 296 294 290 288 284
9 6 5 5 3 2 1 0 359 357 356 355 354 352 351 349 347 344 342 341 340 339 338 336 334 332 330 327 324 320 313 305 300 297 295 293 292 291 291 289 288 287 286
5 4 3 2 1 360 358 358 356 355 353 350 350 350 349 349 347 346 343 340 338 337 335 334 333 331 329 327 325 324 321 314 308 299 295 293 290 289 288 288 287 286 285
4 2 1 0 359 358 357 356 356 355 354 353 349 346 345 345 344 343 343 342 340 337 335 333 331 329 327 325 323 322 320 318 314 310 302 296 293 289 287 287 286 286 284
2 1 0 0 359 358 357 356 355 354 353 352 352 352 350 347 345 343 340 341 338 335 334 332 331 328 326 323 321 321 320 317 314 312 309 304 296 290 289 286 285 284 283